Showing default

IRIDE-MS1-EAG2-9, 68449

Orbit data source: Space-Track

IRIDE-MS1-EAG2-9, 68449 is an Italian payload satellite in SSO that was launched on Mon, 30 Mar 2026 UTC via an FALCON 9 launch vehicle from the Air Force Western Test Range (AFWTR). Payload-class satellites include a variety of spacecraft equipped with specific instruments for various scientific and technological missions. These include communications satellites like Starlink; space stations such as the ISS; scientific satellites like the Hubble; Earth observation satellites from companies like Planet Labs, Umbra, and HawkEye 360; GPS; miniature CubeSats for education and research; and military/defense satellites.

Loading next visibility...
Identifier
68449, 2026-067AK
Orbit
SSO
Country
Flag of ITIT
Related business
Manufacturer
OHB-I
Mission
Operational Commercial Technology
Bus & Motor
EAGLET, Unknown motor
Mass
25 kg wet, 25 kg dry
Launch date (UTC)
2026-03-30 (6 months ago)
Launch vehicle
FALCON 9
Launch site
Air Force Western Test Range (AFWTR)
Object type
Payload
Rocket body
Debris
Shape & HBR
Box + 2 Pan, 1.0 m
Radar Cross Section
0.368 m², Medium (>0.1 m² and < 1m²)

Expand to show TLE details & history
Last TLE update: 13 hours ago

TLE from 13 hours ago
0 IRIDE-MS1-EAG2-9
1 68449U 26067AK  26263.11792405  .00004800  00000-0  23195-3 0  9995
2 68449  97.4610 220.1763 0006087  93.9454 266.2476 15.19088590 26340
Epoch: 2026-09-20T02:49Z
TLE epoch observation values (Epoch: 2026-09-20T02:49:48.637Z)
Latitude
-0.00009°
Longitude
178.70696°
Altitude
511.958 km
Speed
7.608 km/s
True Right ascension
14h 40m 42s
True Declination
0° 00' 00"
Sunlit
Object was in daylight at epoch
Visualization orbit readout
Latitude
Unknown
Longitude
Unknown
Altitude
Unknown
Speed
Unknown
Apparent Right ascension
Unknown
Apparent Declination
Unknown
Sunlit
N/A
Visualization observer readout
Local Sidereal Time
08:44:06
Azimuth
Unknown
Elevation
Unknown
Doppler factor
Unknown
Orbital elements
Apogee altitude
509.753 km
Perigee altitude
501.373 km
Semi-major axis
6,883.7 km
Eccentricity
0.00061
Inclination
97.461°
RAAN
220.1763°
Arg. of periapsis
93.9454°
True anomaly
266.178°
Mean anomaly
266.2476°
Eccentric anomaly
266.2128°
Mean motion
3.80023 °/min
Orbital period
94.73 mins
BSTAR
0.00023195
Loading maneuver chart data...
Computing Atmospheric mass density...
Loading historical data...
Loading historical data...
Loading historical data...
Loading historical data...
Loading historical data...
Loading historical data...
Loading historical data...

Documentation

Showing up to 5 results
|